KE9LZ-9 Weather Reports


Display with metric or nautical units.
time (UTC)temp
F
wind
direction
speed
MPH
gust
MPH
rain 1hr
in
rain 24hr
in
rain mn
in
humidity
%
barometer
mb
20170926015005 70 165 0.0 1.0 0.00 0.00 0.00 81 1010.2
20170926014004 70 195 0.0 1.0 0.00 0.00 0.00 81 1010.2
20170926013005 70 270 0.0 1.0 0.00 0.00 0.00 81 1010.2
20170926012005 70 212 0.0 2.0 0.00 0.00 0.00 81 1009.9
20170926011004 72 158 0.0 1.0 0.00 0.00 0.00 81 1010.1
20170926010004 72 188 0.0 1.0 0.00 0.00 0.00 80 1009.9
20170926005004 72 270 0.0 2.0 0.00 0.00 0.00 80 1009.9
20170926004005 72 334 0.0 1.0 0.00 0.00 0.00 79 1009.6
20170926003005 73 199 0.0 3.0 0.00 0.00 0.00 79 1009.8
20170926002005 73 232 0.0 1.0 0.00 0.00 0.00 79 1009.9
20170926001005 73 225 0.0 0.0 0.00 0.00 0.00 78 1009.9
20170926000004 73 337 0.0 1.0 0.00 0.00 0.00 76 1009.6
20170925235004 75 306 0.0 2.0 0.00 0.00 0.00 75 1009.6
20170925234005 76 228 0.0 2.0 0.00 0.00 0.00 73 1009.6
20170925233005 77 261 0.0 0.0 0.00 0.00 0.00 70 1009.6
20170925232004 79 154 1.0 2.0 0.00 0.00 0.00 68 1009.6
20170925231005 81 324 0.0 1.0 0.00 0.00 0.00 64 1009.9
20170925230004 81 284 1.0 3.0 0.00 0.00 0.00 60 1010.0
20170925225005 82 357 0.0 3.0 0.00 0.00 0.00 60 1010.0
20170925224004 82 49 1.0 3.0 0.00 0.00 0.00 61 1010.0
20170925223004 82 113 1.0 3.0 0.00 0.00 0.00 60 1010.0
20170925222005 82 341 1.0 3.0 0.00 0.00 0.00 58 1010.1
20170925221005 84 174 1.0 3.0 0.00 0.00 0.00 56 1010.1
20170925220004 84 185 0.0 2.0 0.00 0.00 0.00 53 1009.8
20170925215004 85 158 2.0 3.0 0.00 0.00 0.00 51 1009.8
20170925214005 86 280 2.0 5.0 0.00 0.00 0.00 50 1009.8
20170925213005 86 113 2.0 5.0 0.00 0.00 0.00 48 1009.8
20170925212005 86 49 2.0 5.0 0.00 0.00 0.00 48 1009.9
20170925211004 86 100 2.0 3.0 0.00 0.00 0.00 49 1009.9
20170925210004 86 203 1.0 5.0 0.00 0.00 0.00 50 1010.2
20170925205004 88 113 2.0 5.0 0.00 0.00 0.00 48 1010.2
20170925204005 88 226 2.0 3.0 0.00 0.00 0.00 48 1010.3
20170925203005 88 270 2.0 5.0 0.00 0.00 0.00 46 1010.3
20170925202006 88 90 2.0 5.0 0.00 0.00 0.00 48 1010.3
20170925201004 86 144 2.0 3.0 0.00 0.00 0.00 50 1010.6
20170925200004 86 189 1.0 5.0 0.00 0.00 0.00 50 1010.7
20170925195005 88 177 2.0 5.0 0.00 0.00 0.00 49 1011.1
20170925194005 88 187 2.0 6.0 0.00 0.00 0.00 48 1011.1
20170925193004 88 237 2.0 6.0 0.00 0.00 0.00 48 1011.2
20170925192005 86 167 1.0 5.0 0.00 0.00 0.00 51 1011.5
20170925191007 88 243 3.0 5.0 0.00 0.00 0.00 48 1011.3
20170925190005 88 180 3.0 6.0 0.00 0.00 0.00 46 1011.5
20170925185006 88 270 3.0 5.0 0.00 0.00 0.00 48 1012.0
20170925184005 86 225 2.0 5.0 0.00 0.00 0.00 50 1012.0
20170925183007 86 151 2.0 5.0 0.00 0.00 0.00 50 1012.0
20170925182005 86 180 3.0 5.0 0.00 0.00 0.00 51 1012.1
20170925181005 86 293 2.0 5.0 0.00 0.00 0.00 50 1012.4
20170925180004 86 156 2.0 3.0 0.00 0.00 0.00 51 1012.4
20170925175005 84 158 3.0 7.0 0.00 0.00 0.00 53 1012.7
20170925174005 84 228 2.0 5.0 0.00 0.00 0.00 54 1012.8
20170925173006 84 180 2.0 5.0 0.00 0.00 0.00 55 1012.8
20170925172006 84 63 2.0 3.0 0.00 0.00 0.00 56 1012.8
20170925171006 84 248 1.0 2.0 0.00 0.00 0.00 58 1013.1
20170925170005 82 217 2.0 3.0 0.00 0.00 0.00 59 1013.3
20170925165005 82 266 3.0 6.0 0.00 0.00 0.00 58 1013.3
20170925164005 82 255 1.0 3.0 0.00 0.00 0.00 59 1013.6
20170925163006 82 270 2.0 3.0 0.00 0.00 0.00 60 1013.6
20170925162006 81 156 2.0 3.0 0.00 0.00 0.00 61 1013.7
20170925161006 81 113 1.0 3.0 0.00 0.00 0.00 63 1013.7
20170925160004 81 180 2.0 3.0 0.00 0.00 0.00 63 1013.7
20170925155006 79 245 1.0 5.0 0.00 0.00 0.00 65 1013.9
20170925154006 79 53 2.0 3.0 0.00 0.00 0.00 65 1013.9
20170925153005 79 293 1.0 3.0 0.00 0.00 0.00 67 1014.0
20170925152006 79 233 1.0 3.0 0.00 0.00 0.00 68 1014.0
20170925151006 77 182 2.0 3.0 0.00 0.00 0.00 67 1014.1
20170925150004 75 244 2.0 3.0 0.00 0.00 0.00 70 1014.1
20170925145005 75 225 3.0 6.0 0.00 0.00 0.00 72 1014.1
20170925144005 75 203 2.0 6.0 0.00 0.00 0.00 74 1014.1
20170925143004 73 147 1.0 2.0 0.00 0.00 0.00 78 1014.1
20170925142005 73 248 1.0 2.0 0.00 0.00 0.00 78 1014.1
20170925141005 72 111 0.0 1.0 0.00 0.00 0.00 81 1014.1
20170925140005 72 293 1.0 2.0 0.00 0.00 0.00 83 1014.1
20170925135006 70 232 1.0 3.0 0.00 0.00 0.00 83 1014.1
20170925134008 70 143 2.0 3.0 0.00 0.00 0.00 86 1014.1
20170925133004 68 254 1.0 3.0 0.00 0.00 0.00 88 1014.1
20170925132005 68 270 1.0 3.0 0.00 0.00 0.00 90 1014.1
20170925131006 66 152 0.0 2.0 0.00 0.00 0.00 93 1014.3
20170925130005 64 153 0.0 0.0 0.00 0.00 0.00 96 1014.3
20170925125005 63 203 0.0 1.0 0.00 0.00 0.00 96 1014.3
20170925124005 61 186 0.0 0.0 0.00 0.00 0.00 98 1014.3
20170925123005 61 165 0.0 0.0 0.00 0.00 0.00 98 1014.1
20170925122005 59 203 0.0 0.0 0.00 0.00 0.00 98 1014.1
20170925121005 59 225 0.0 0.0 0.00 0.00 0.00 98 1014.0
20170925120005 59 225 0.0 0.0 0.00 0.00 0.00 98 1013.7
20170925115005 59 248 0.0 0.0 0.00 0.00 0.00 98 1013.7
20170925114005 59 270 0.0 0.0 0.00 0.00 0.00 98 1013.6
20170925113005 59 248 0.0 0.0 0.00 0.00 0.00 96 1013.3
20170925112005 59 270 0.0 0.0 0.00 0.00 0.00 96 1013.3
20170925111004 59 270 0.0 0.0 0.00 0.00 0.00 96 1013.6
20170925110004 59 293 0.0 0.0 0.00 0.00 0.00 96 1013.3
20170925105004 59 293 0.0 0.0 0.00 0.00 0.00 96 1013.3
20170925104004 59 293 0.0 0.0 0.00 0.00 0.00 96 1013.2
20170925103006 59 293 0.0 0.0 0.00 0.00 0.00 96 1013.2
20170925102005 59 293 0.0 0.0 0.00 0.00 0.00 96 1012.8
20170925101005 59 293 0.0 0.0 0.00 0.00 0.00 96 1012.7
20170925100004 59 293 0.0 0.0 0.00 0.00 0.00 96 1012.7
20170925095004 59 298 0.0 0.0 0.00 0.00 0.00 98 1012.7
20170925094004 59 248 0.0 0.0 0.00 0.00 0.00 96 1012.8
20170925093005 59 270 0.0 0.0 0.00 0.00 0.00 96 1012.6
20170925092005 59 270 0.0 0.0 0.00 0.00 0.00 96 1012.6
20170925091004 59 270 0.0 0.0 0.00 0.00 0.00 96 1012.6
20170925090004 59 270 0.0 0.0 0.00 0.00 0.00 96 1012.8
20170925085004 59 270 0.0 0.0 0.00 0.00 0.00 96 1012.8
20170925084005 59 270 0.0 0.0 0.00 0.00 0.00 96 1012.5
20170925083004 59 270 0.0 0.0 0.00 0.00 0.00 96 1012.5
20170925082005 59 270 0.0 0.0 0.00 0.00 0.00 96 1012.3
20170925081005 59 270 0.0 0.0 0.00 0.00 0.00 96 1012.3
20170925080004 59 270 0.0 0.0 0.00 0.00 0.00 96 1012.4
20170925075005 59 270 0.0 0.0 0.00 0.00 0.00 96 1012.4
20170925074005 59 270 0.0 0.0 0.00 0.00 0.00 95 1012.3
20170925073005 59 270 0.0 0.0 0.00 0.00 0.00 95 1012.3
20170925072004 59 270 0.0 0.0 0.00 0.00 0.00 95 1012.3
20170925071005 61 270 0.0 0.0 0.00 0.00 0.00 95 1012.6
20170925070004 61 270 0.0 0.0 0.00 0.00 0.00 95 1012.6
20170925065004 61 270 0.0 0.0 0.00 0.00 0.00 95 1012.6
20170925064005 61 270 0.0 0.0 0.00 0.00 0.00 95 1012.6
20170925063005 61 270 0.0 0.0 0.00 0.00 0.00 95 1012.6
20170925062005 61 270 0.0 0.0 0.00 0.00 0.00 95 1012.6
20170925061004 61 270 0.0 0.0 0.00 0.00 0.00 93 1012.5
20170925060005 61 270 0.0 0.0 0.00 0.00 0.00 93 1012.5
20170925055004 61 270 0.0 0.0 0.00 0.00 0.00 93 1012.5
20170925054005 63 270 0.0 0.0 0.00 0.00 0.00 93 1012.5
20170925053005 63 270 0.0 0.0 0.00 0.00 0.00 93 1012.5
20170925052004 63 270 0.0 0.0 0.00 0.00 0.00 91 1012.4
20170925051007 63 270 0.0 0.0 0.00 0.00 0.00 91 1012.4
20170925050004 64 270 0.0 0.0 0.00 0.00 0.00 91 1012.4
20170925045007 64 270 0.0 0.0 0.00 0.00 0.00 91 1012.4
20170925044004 64 270 0.0 0.0 0.00 0.00 0.00 91 1012.4
20170925043004 66 290 0.0 0.0 0.00 0.00 0.00 90 1012.3
20170925042004 66 270 0.0 0.0 0.00 0.00 0.00 90 1012.4
20170925041004 66 248 0.0 1.0 0.00 0.00 0.00 90 1011.9
20170925040004 68 51 0.0 2.0 0.00 0.00 0.00 90 1011.9
20170925035005 66 127 0.0 2.0 0.00 0.00 0.00 90 1011.9
20170925034005 68 200 0.0 2.0 0.00 0.00 0.00 90 1011.9
20170925033005 68 295 0.0 2.0 0.00 0.00 0.00 90 1012.3
20170925032005 68 176 0.0 1.0 0.00 0.00 0.00 88 1012.3
20170925031004 68 235 0.0 0.0 0.00 0.00 0.00 88 1012.3
20170925030004 68 186 0.0 1.0 0.00 0.00 0.00 88 1012.3
20170925025004 68 8 0.0 1.0 0.00 0.00 0.00 88 1012.3
20170925024004 68 244 0.0 0.0 0.00 0.00 0.00 88 1012.3
20170925023004 70 328 0.0 0.0 0.00 0.00 0.00 86 1012.3
20170925022004 70 202 0.0 1.0 0.00 0.00 0.00 86 1012.3
20170925021004 70 331 0.0 0.0 0.00 0.00 0.00 86 1012.3
20170925020005 70 270 0.0 1.0 0.00 0.00 0.00 85 1012.3